Tucumcari, NM

12:42 PM MDT on September 20, 2017 (GMT -0600)
Tucumcari Municipal

Weather History for KTCC - September, 2012

Change the Weather History Date:

Sunday, September 23, 2012

  Actual Average Record
Temperature  
Mean Temperature 82 °F -  
Max Temperature 96 °F 80 °F 96 °F (2012)
Min Temperature 69 °F 51 °F 38 °F (1985)
Cooling Degree Days 17    
Growing Degree Days 32 (Base 50)    
Moisture  
Dew Point 27 °F    
Average Humidity 15    
Maximum Humidity 23    
Minimum Humidity 8    
Precipitation  
Precipitation 0.00 in - - ()
Sea Level Pressure  
Sea Level Pressure 29.98 in    
Wind  
Wind Speed 13 mph (SW)    
Max Wind Speed 24 mph    
Max Gust Speed 31 mph    
Visibility 10 miles    
Events      
Averages and records for this station are not official NWS values.
T = Trace of Precipitation, MM = Missing Value Source: NWS Daily Summary

Daily Weather History Graph

Daily Weather History Graph

Search for Another Location

Airport or City:

Trip Planner

Search our weather history database for the weather conditions in past years. The results will help you decide how hot, cold, wet, or windy it might be!

Date:

Astronomy

Sep. 23, 2012 Rise Set
Actual Time 6:43 AM MDT 6:48 PM MDT
Civil Twilight 6:18 AM MDT 7:14 PM MDT
Nautical Twilight 5:48 AM MDT 7:43 PM MDT
Astronomical Twilight 5:18 AM MDT 8:13 PM MDT
Moon 2:40 PM MDT (9/23) 12:10 AM MDT (9/23)
Length of Visible Light 12h 56m
Length of Day
12h 05m
First Quarter, 60% of the Moon is Illuminated
Sep 23
First Quarter
Sep 29
Full
Oct 8
Last Quarter
Oct 15
New
Oct 21
First Quarter

Hourly Weather History & Observations

Time (MDT) Temp. Dew Point Humidity Pressure Visibility Wind Dir Wind Speed Gust Speed Precip Events Conditions
12:53 AM 73.0 °F 30.9 °F 21% 29.96 in 10.0 mi SSW 13.8 mph - N/A   Clear
1:53 AM 72.0 °F 30.9 °F 22% 29.96 in 10.0 mi South 12.7 mph - N/A   Clear
2:53 AM 71.1 °F 30.9 °F 23% 29.96 in 10.0 mi SSW 10.4 mph - N/A   Clear
3:53 AM 70.0 °F 30.0 °F 23% 29.96 in 10.0 mi Calm Calm - N/A   Clear
4:53 AM 69.1 °F 30.0 °F 23% 29.96 in 10.0 mi WNW 3.5 mph - N/A   Clear
5:53 AM 72.0 °F 28.9 °F 20% 29.99 in 10.0 mi Variable 5.8 mph - N/A   Clear
6:53 AM 69.1 °F 27.0 °F 21% 30.02 in 10.0 mi West 6.9 mph - N/A   Clear
7:53 AM 73.0 °F 28.0 °F 19% 30.05 in 10.0 mi West 9.2 mph - N/A   Clear
8:53 AM 77.0 °F 28.9 °F 17% 30.05 in 10.0 mi SSW 13.8 mph - N/A   Clear
9:53 AM 82.0 °F 30.0 °F 15% 30.05 in 10.0 mi West 9.2 mph - N/A   Clear
10:53 AM 86.0 °F 28.9 °F 13% 30.03 in 10.0 mi WSW 9.2 mph - N/A   Clear
11:28 AM 89.6 °F 28.4 °F 11% 30.22 in 10.0 mi SW 20.7 mph 27.6 mph N/A   Clear
11:53 AM 90.0 °F 28.0 °F 11% 30.01 in 10.0 mi SW 17.3 mph 25.3 mph N/A   Clear
12:53 PM 93.0 °F 25.0 °F 9% 29.98 in 10.0 mi SW 17.3 mph 27.6 mph N/A   Clear
1:53 PM 95.0 °F 23.0 °F 8% 29.94 in 10.0 mi SSW 24.2 mph 31.1 mph N/A   Clear
2:53 PM 95.0 °F 23.0 °F 8% 29.92 in 10.0 mi SSW 21.9 mph 31.1 mph N/A   Clear
3:53 PM 93.9 °F 24.1 °F 8% 29.91 in 10.0 mi SSW 20.7 mph 28.8 mph N/A   Clear
4:53 PM 93.0 °F 23.0 °F 8% 29.90 in 10.0 mi SSW 21.9 mph 28.8 mph N/A   Clear
5:53 PM 90.0 °F 24.1 °F 9% 29.91 in 10.0 mi SSW 20.7 mph 28.8 mph N/A   Clear
6:53 PM 84.9 °F 25.0 °F 11% 29.93 in 10.0 mi SSW 17.3 mph - N/A   Clear
7:53 PM 82.0 °F 25.0 °F 12% 29.93 in 10.0 mi South 16.1 mph - N/A   Clear
8:53 PM 80.1 °F 25.0 °F 13% 29.94 in 10.0 mi South 18.4 mph - N/A   Clear
9:53 PM 77.0 °F 27.0 °F 16% 29.94 in 10.0 mi South 16.1 mph - N/A   Clear
10:53 PM 77.0 °F 28.0 °F 17% 29.94 in 10.0 mi SSW 18.4 mph - N/A   Clear
11:53 PM 75.0 °F 30.9 °F 20% 29.94 in 10.0 mi SSW 16.1 mph - N/A   Clear